Location: Unspecified
(45.4615°N, 74.0512°W)
Time: 05:36:14
(UTC-05:00)

Cosmos 2058 - Visible Passes

Search period start: 21 January 2018 00:00
Search period end: 31 January 2018 00:00
Orbit: 564 x 584 km, 82.5° (Epoch: 20 January)

Date Brightness Start Highest point End Pass type
(mag) Time Alt. Az. Time Alt. Az. Time Alt. Az.
21 Jan 6.0 04:29:16 10° NE 04:31:16 13° ENE 04:33:15 10° E visible
21 Jan 2.9 06:04:29 10° NNW 06:08:39 63° W 06:12:48 10° S visible
21 Jan 2.9 18:30:26 10° S 18:34:31 58° E 18:36:33 28° NNE visible
21 Jan 5.9 20:09:42 10° W 20:11:53 14° WNW 20:12:52 13° NW visible
22 Jan 5.7 04:31:54 10° NNE 04:34:38 17° ENE 04:37:21 10° ESE visible
22 Jan 3.2 06:07:47 10° NNW 06:11:51 47° W 06:15:52 10° SSW visible
22 Jan 2.8 18:33:34 10° S 18:37:43 78° E 18:41:10 15° NNE visible
22 Jan 6.1 20:14:15 10° WNW 20:15:15 11° WNW 20:16:15 10° NW visible
23 Jan 5.4 04:34:45 10° NNE 04:37:59 21° ENE 04:41:11 10° ESE visible
23 Jan 3.5 06:11:10 10° NNW 06:15:01 35° W 06:18:51 10° SSW visible
23 Jan 3.0 18:36:46 10° SSW 18:40:57 80° W 18:45:11 10° N visible
24 Jan 5.0 04:38:14 13° NNE 04:41:18 26° ENE 04:44:51 10° SE visible
24 Jan 3.8 06:14:35 10° NNW 06:18:11 27° W 06:21:43 10° SSW visible
24 Jan 3.4 18:40:04 10° SSW 18:44:12 60° W 18:48:23 10° N visible
25 Jan 4.5 04:42:29 21° NNE 04:44:36 34° ENE 04:48:25 10° SE visible
25 Jan 4.2 06:18:46 13° NW 06:21:19 21° W 06:24:29 10° SW visible
25 Jan 4.0 18:43:26 10° SSW 18:47:27 45° WNW 18:51:32 10° N visible
26 Jan 4.0 04:46:51 36° NE 04:47:53 44° ENE 04:51:53 10° SSE visible
26 Jan 4.4 06:23:09 15° WNW 06:24:26 17° W 06:27:05 10° SW visible
26 Jan 4.6 18:46:54 10° SW 18:50:44 35° WNW 18:54:38 10° N visible
27 Jan 3.4 04:51:22 58° E 04:51:22 58° E 04:55:15 10° SSE visible
27 Jan 4.7 06:27:40 13° W 06:27:40 13° W 06:29:23 10° WSW visible
27 Jan 5.1 18:50:27 10° SW 18:54:02 27° WNW 18:57:40 10° NNW visible
28 Jan 4.0 04:55:58 37° SSE 04:55:58 37° SSE 04:58:33 10° SSE visible
28 Jan 5.5 18:54:06 10° WSW 18:57:21 21° WNW 19:00:37 10° NNW visible
29 Jan 4.9 05:00:37 18° S 05:00:37 18° S 05:01:46 10° S visible
29 Jan 5.8 18:57:56 10° WSW 19:00:41 17° WNW 19:03:29 10° NNW visible
30 Jan 6.0 19:01:59 10° W 19:04:04 13° WNW 19:06:08 10° NW visible
